Simultaneous Nadir Overpasses (SNOs) Predictions

Prediction of SNOs between GOES-14 and NOAA-20 Satellite Orbit:

Table of predicted SNOs for the next 14.0 days since TLE Epoch: 6/24/2023
Index Date Time (GOES-14) GOES-14 Lat,Lon NOAA-20 Lat,Lon Distance(km) Time Diff (sec)
1 06/25/2023 20:40:53 0.08,-108.59 -0.03,-109.08 55.77 80
2 06/26/2023 20:24:49 0.06,-108.59 0.96,-104.54 460.80 80
3 06/28/2023 08:43:58 -0.10,-108.67 0.16,-109.83 132.56 80
4 06/29/2023 08:27:53 -0.09,-108.66 -0.84,-105.30 383.16 80
5 06/30/2023 20:47:11 0.13,-108.57 -0.35,-110.61 233.67 80
6 07/01/2023 20:31:06 0.12,-108.56 0.65,-106.08 282.27 80
7 07/03/2023 08:50:16 -0.16,-108.64 0.47,-111.37 311.00 80
8 07/04/2023 08:34:11 -0.14,-108.63 -0.53,-106.84 204.23 80
9 07/05/2023 20:53:28 0.18,-108.52 -0.64,-112.15 414.09 80
10 07/06/2023 20:37:24 0.16,-108.51 0.36,-107.62 101.85 80
